Tracking 19477 objects as of 16-Jan-2019
HD Live streaming from Space Station
objects crossing your sky now

OPS 9433 (DSCS 2-3)

Track OPS 9433 (DSCS 2-3) now!
OPS 9433 (DSCS 2-3) is classified as:


NORAD ID: 6973
Int'l Code: 1973-100A
Perigee: 36,427.2 km
Apogee: 36,660.6 km
Inclination: 11.7 °
Period: 1,474.6 minutes
Semi major axis: 42914 km
RCS: 5.3322 m2 (large)
Launch date: December 13, 1973
Source: United States (US)
Launch site: AIR FORCE EASTERN TEST RANGE (AFETR)
aabbcc
Your satellite tracking list
Your tracking list is empty




NASA's NSSDC Master Catalog

Two Line Element Set (TLE):
1  6973U 73100A   19015.77564417 -.00000031  00000-0  00000+0 0  9997
2  6973  11.7257 310.0142 0027192 157.9342  16.4423  0.97654196 93428
Source of the keplerian elements: AFSPC